| time (UTC) | temp C | wind direction | speed KPH | gust KPH | rain 1hr cm | rain 24hr cm | rain mn cm | humidity % | barometer mb |
| 20260906180021 | 20 | 292 | 0.0 | 3.2 | 0.38 | 1.47 | 1.47 | 90 | 1016.2 |
| 20260906174523 | 20 | 33 | 0.0 | 0.0 | 0.33 | 1.37 | 1.37 | 89 | 1015.9 |
| 20260906173027 | 19 | 159 | 0.0 | 0.0 | 0.41 | 1.27 | 1.27 | 88 | 1016.7 |
| 20260906172019 | 20 | 10 | 0.0 | 0.0 | 0.41 | 1.19 | 1.19 | 88 | 1016.4 |
| 20260906171530 | 20 | 11 | 0.0 | 0.0 | 0.38 | 1.14 | 1.14 | 89 | 1016.4 |
| 20260906171019 | 19 | 118 | 0.0 | 0.0 | 0.36 | 1.09 | 1.09 | 88 | 1016.5 |
| 20260906170509 | 19 | 133 | 0.0 | 3.2 | 0.41 | 1.09 | 1.09 | 88 | 1016.5 |
| 20260906170017 | 19 | 147 | 0.0 | 3.2 | 0.46 | 1.09 | 1.09 | 87 | 1016.2 |
| 20260906165510 | 19 | 240 | 0.0 | 0.0 | 0.46 | 1.07 | 1.07 | 88 | 1015.8 |
| 20260906165013 | 19 | 173 | 0.0 | 0.0 | 0.48 | 1.07 | 1.07 | 88 | 1015.6 |
| 20260906164521 | 19 | 28 | 0.0 | 1.6 | 0.46 | 1.04 | 1.04 | 88 | 1015.4 |
| 20260906164016 | 19 | 26 | 0.0 | 6.4 | 0.38 | 0.97 | 0.97 | 87 | 1015.3 |
| 20260906163514 | 19 | 26 | 0.0 | 6.4 | 0.36 | 0.91 | 0.91 | 87 | 1015.5 |
| 20260906163030 | 19 | 34 | 1.6 | 3.2 | 0.30 | 0.86 | 0.86 | 87 | 1015.6 |
| 20260906162519 | 19 | 9 | 0.0 | 3.2 | 0.28 | 0.84 | 0.84 | 87 | 1015.7 |
| 20260906162014 | 19 | 352 | 0.0 | 3.2 | 0.23 | 0.79 | 0.79 | 87 | 1015.9 |
| 20260906161532 | 19 | 323 | 0.0 | 3.2 | 0.20 | 0.76 | 0.76 | 86 | 1015.9 |
| 20260906161020 | 19 | 323 | 0.0 | 3.2 | 0.18 | 0.74 | 0.74 | 85 | 1015.9 |
| 20260906160518 | 19 | 322 | 0.0 | 3.2 | 0.13 | 0.69 | 0.69 | 84 | 1015.7 |
| 20260906160037 | 19 | 316 | 0.0 | 3.2 | 0.08 | 0.64 | 0.64 | 83 | 1015.3 |
| 20260906155511 | 19 | 315 | 0.0 | 3.2 | 0.05 | 0.61 | 0.61 | 83 | 1015.3 |
| 20260906155015 | 19 | 11 | 0.0 | 3.2 | 0.03 | 0.58 | 0.58 | 84 | 1015.2 |
| 20260906154535 | 19 | 111 | 0.0 | 3.2 | 0.03 | 0.58 | 0.58 | 84 | 1015.1 |
| 20260906154015 | 19 | 171 | 0.0 | 3.2 | 0.03 | 0.58 | 0.58 | 83 | 1014.8 |
| 20260906153518 | 19 | 107 | 0.0 | 3.2 | 0.00 | 0.56 | 0.56 | 84 | 1014.5 |
| 20260906153026 | 19 | 161 | 0.0 | 0.0 | 0.00 | 0.56 | 0.56 | 84 | 1014.3 |
| 20260906152516 | 19 | 148 | 0.0 | 0.0 | 0.00 | 0.56 | 0.56 | 84 | 1014.1 |
| 20260906152016 | 19 | 188 | 0.0 | 0.0 | 0.00 | 0.56 | 0.56 | 84 | 1013.9 |
| 20260906151530 | 19 | 188 | 0.0 | 0.0 | 0.03 | 0.56 | 0.56 | 85 | 1013.7 |
| 20260906151017 | 19 | 182 | 0.0 | 0.0 | 0.03 | 0.56 | 0.56 | 85 | 1013.7 |
| 20260906150516 | 19 | 181 | 0.0 | 0.0 | 0.05 | 0.56 | 0.56 | 84 | 1013.7 |
| 20260906150031 | 19 | 181 | 0.0 | 0.0 | 0.05 | 0.56 | 0.56 | 84 | 1013.6 |
| 20260906145514 | 19 | 181 | 0.0 | 1.6 | 0.05 | 0.56 | 0.56 | 84 | 1013.6 |
| 20260906145019 | 19 | 148 | 0.0 | 1.6 | 0.08 | 0.56 | 0.56 | 82 | 1013.6 |
| 20260906144535 | 20 | 234 | 0.0 | 0.0 | 0.10 | 0.56 | 0.56 | 81 | 1013.7 |
| 20260906144016 | 19 | 196 | 0.0 | 0.0 | 0.13 | 0.56 | 0.56 | 81 | 1013.6 |
| 20260906143512 | 19 | 336 | 0.0 | 3.2 | 0.13 | 0.56 | 0.56 | 80 | 1013.5 |
| 20260906143027 | 20 | 9 | 0.0 | 4.8 | 0.13 | 0.56 | 0.56 | 80 | 1013.4 |
| 20260906142517 | 20 | 38 | 0.0 | 4.8 | 0.15 | 0.56 | 0.56 | 79 | 1013.4 |
| 20260906142016 | 19 | 23 | 0.0 | 3.2 | 0.18 | 0.56 | 0.56 | 80 | 1013.5 |
| 20260906141528 | 18 | 19 | 0.0 | 1.6 | 0.15 | 0.53 | 0.53 | 79 | 1013.6 |
| 20260906141015 | 19 | 294 | 0.0 | 8.0 | 0.18 | 0.53 | 0.53 | 77 | 1013.6 |
| 20260906140521 | 19 | 29 | 1.6 | 8.0 | 0.15 | 0.51 | 0.51 | 77 | 1013.7 |
| 20260906140040 | 19 | 12 | 3.2 | 8.0 | 0.18 | 0.51 | 0.51 | 78 | 1013.5 |
| 20260906135508 | 18 | 14 | 3.2 | 8.0 | 0.18 | 0.51 | 0.51 | 80 | 1013.7 |
| 20260906135007 | 18 | 36 | 0.0 | 4.8 | 0.25 | 0.48 | 0.48 | 83 | 1013.6 |
| 20260906134515 | 18 | 21 | 0.0 | 3.2 | 0.30 | 0.46 | 0.46 | 82 | 1013.9 |
| 20260906134010 | 18 | 32 | 0.0 | 6.4 | 0.30 | 0.43 | 0.43 | 82 | 1014.0 |
| 20260906133510 | 18 | 22 | 0.0 | 6.4 | 0.36 | 0.43 | 0.43 | 82 | 1014.2 |
| 20260906133022 | 18 | 21 | 0.0 | 3.2 | 0.38 | 0.43 | 0.43 | 84 | 1014.1 |
| 20260906132514 | 18 | 26 | 0.0 | 3.2 | 0.38 | 0.41 | 0.41 | 83 | 1014.2 |
| 20260906132014 | 18 | 33 | 0.0 | 1.6 | 0.38 | 0.38 | 0.38 | 82 | 1014.4 |
| 20260906131525 | 18 | 360 | 0.0 | 3.2 | 0.38 | 0.38 | 0.38 | 81 | 1014.7 |
| 20260906131015 | 18 | 11 | 0.0 | 3.2 | 0.36 | 0.36 | 0.36 | 80 | 1014.5 |
| 20260906130515 | 19 | 11 | 0.0 | 6.4 | 0.36 | 0.36 | 0.36 | 80 | 1014.1 |
| 20260906130040 | 19 | 9 | 1.6 | 6.4 | 0.33 | 0.33 | 0.33 | 83 | 1014.0 |
| 20260906125514 | 19 | 34 | 0.0 | 8.0 | 0.33 | 0.33 | 0.33 | 81 | 1013.7 |
| 20260906125020 | 20 | 15 | 0.0 | 8.0 | 0.23 | 0.23 | 0.23 | 78 | 1013.9 |
| 20260906124532 | 20 | 30 | 0.0 | 3.2 | 0.15 | 0.15 | 0.15 | 79 | 1014.4 |
| 20260906124008 | 20 | 338 | 1.6 | 3.2 | 0.13 | 0.13 | 0.13 | 79 | 1015.0 |
| 20260906123512 | 20 | 318 | 0.0 | 3.2 | 0.08 | 0.08 | 0.08 | 76 | 1015.2 |
| 20260906123017 | 20 | 132 | 0.0 | 3.2 | 0.05 | 0.05 | 0.05 | 69 | 1014.5 |
| 20260906122511 | 21 | 242 | 0.0 | 1.6 | 0.03 | 0.03 | 0.03 | 67 | 1013.7 |
| 20260906122011 | 21 | 15 | 0.0 | 0.0 | 0.00 | 0.00 | 0.00 | 64 | 1013.1 |
| 20260906121523 | 22 | 36 | 0.0 | 0.0 | 0.00 | 0.00 | 0.00 | 59 | 1012.9 |
| 20260906121015 | 22 | 144 | 0.0 | 0.0 | 0.00 | 0.00 | 0.00 | 46 | 1012.9 |
| 20260906120515 | 22 | 143 | 0.0 | 0.0 | 0.00 | 0.00 | 0.00 | 45 | 1012.8 |
| 20260906120028 | 22 | 140 | 0.0 | 0.0 | 0.00 | 0.00 | 0.00 | 45 | 1012.6 |
| 20260906115515 | 22 | 28 | 0.0 | 0.0 | 0.00 | 0.00 | 0.00 | 44 | 1012.4 |
| 20260906115015 | 22 | 28 | 0.0 | 0.0 | 0.00 | 0.00 | 0.00 | 44 | 1012.2 |
| 20260906114534 | 22 | 28 | 0.0 | 0.0 | 0.00 | 0.00 | 0.00 | 44 | 1012.2 |
| 20260906114018 | 22 | 28 | 0.0 | 0.0 | 0.00 | 0.00 | 0.00 | 45 | 1012.3 |
| 20260906113517 | 22 | 28 | 0.0 | 0.0 | 0.00 | 0.00 | 0.00 | 45 | 1012.3 |
| 20260906113022 | 22 | 30 | 0.0 | 0.0 | 0.00 | 0.00 | 0.00 | 44 | 1012.3 |
| 20260906112511 | 22 | 30 | 0.0 | 0.0 | 0.00 | 0.00 | 0.00 | 44 | 1012.3 |
| 20260906112015 | 22 | 30 | 0.0 | 0.0 | 0.00 | 0.00 | 0.00 | 44 | 1012.3 |
| 20260906111523 | 22 | 30 | 0.0 | 0.0 | 0.00 | 0.00 | 0.00 | 45 | 1012.4 |
| 20260906111015 | 22 | 30 | 0.0 | 0.0 | 0.00 | 0.00 | 0.00 | 46 | 1012.3 |
| 20260906110514 | 22 | 30 | 0.0 | 0.0 | 0.00 | 0.00 | 0.00 | 47 | 1012.5 |
| 20260906110026 | 22 | 30 | 0.0 | 0.0 | 0.00 | 0.00 | 0.00 | 45 | 1012.4 |
| 20260906105516 | 22 | 30 | 0.0 | 0.0 | 0.00 | 0.00 | 0.00 | 46 | 1012.5 |
| 20260906105014 | 22 | 30 | 0.0 | 0.0 | 0.00 | 0.00 | 0.00 | 47 | 1012.4 |
| 20260906104532 | 22 | 30 | 0.0 | 0.0 | 0.00 | 0.00 | 0.00 | 47 | 1012.4 |
| 20260906104015 | 22 | 30 | 0.0 | 0.0 | 0.00 | 0.00 | 0.00 | 47 | 1012.3 |
| 20260906103516 | 22 | 30 | 0.0 | 3.2 | 0.00 | 0.00 | 0.00 | 46 | 1012.4 |
| 20260906103030 | 22 | 30 | 0.0 | 3.2 | 0.00 | 0.00 | 0.00 | 46 | 1012.4 |
| 20260906102514 | 22 | 28 | 0.0 | 3.2 | 0.00 | 0.00 | 0.00 | 47 | 1012.2 |
| 20260906102019 | 22 | 349 | 0.0 | 0.0 | 0.00 | 0.00 | 0.00 | 48 | 1012.4 |
| 20260906101518 | 22 | 349 | 0.0 | 0.0 | 0.00 | 0.00 | 0.00 | 47 | 1012.5 |
| 20260906101014 | 22 | 349 | 0.0 | 0.0 | 0.00 | 0.00 | 0.00 | 47 | 1012.5 |
| 20260906100514 | 22 | 349 | 0.0 | 3.2 | 0.00 | 0.00 | 0.00 | 46 | 1012.3 |
| 20260906100022 | 22 | 349 | 0.0 | 3.2 | 0.00 | 0.00 | 0.00 | 46 | 1012.3 |
| 20260906095515 | 22 | 341 | 0.0 | 0.0 | 0.00 | 0.00 | 0.00 | 46 | 1012.4 |
| 20260906095015 | 22 | 341 | 0.0 | 0.0 | 0.00 | 0.00 | 0.00 | 44 | 1012.5 |
| 20260906094533 | 22 | 341 | 0.0 | 0.0 | 0.00 | 0.00 | 0.00 | 44 | 1012.6 |
| 20260906094016 | 22 | 341 | 0.0 | 0.0 | 0.00 | 0.00 | 0.00 | 44 | 1012.6 |
| 20260906093516 | 22 | 341 | 0.0 | 0.0 | 0.00 | 0.00 | 0.00 | 44 | 1012.5 |
| 20260906093032 | 22 | 341 | 0.0 | 0.0 | 0.00 | 0.00 | 0.00 | 45 | 1012.4 |
| 20260906092514 | 22 | 341 | 0.0 | 0.0 | 0.00 | 0.00 | 0.00 | 46 | 1012.4 |
| 20260906092018 | 22 | 341 | 0.0 | 0.0 | 0.00 | 0.00 | 0.00 | 45 | 1012.4 |
| 20260906091534 | 22 | 341 | 0.0 | 0.0 | 0.00 | 0.00 | 0.00 | 44 | 1012.4 |
| 20260906091019 | 22 | 341 | 0.0 | 0.0 | 0.00 | 0.00 | 0.00 | 44 | 1012.4 |
| 20260906090514 | 22 | 341 | 0.0 | 0.0 | 0.00 | 0.00 | 0.00 | 45 | 1012.5 |
| 20260906090024 | 22 | 341 | 0.0 | 0.0 | 0.00 | 0.00 | 0.00 | 43 | 1012.5 |
| 20260906085513 | 22 | 341 | 0.0 | 0.0 | 0.00 | 0.00 | 0.00 | 43 | 1012.5 |
| 20260906085021 | 22 | 341 | 0.0 | 0.0 | 0.00 | 0.00 | 0.00 | 43 | 1012.5 |
| 20260906084528 | 22 | 341 | 0.0 | 0.0 | 0.00 | 0.00 | 0.00 | 44 | 1012.6 |
| 20260906084015 | 22 | 341 | 0.0 | 0.0 | 0.00 | 0.00 | 0.00 | 44 | 1012.6 |
| 20260906083518 | 22 | 341 | 0.0 | 0.0 | 0.00 | 0.00 | 0.00 | 44 | 1012.6 |
| 20260906083032 | 21 | 341 | 0.0 | 0.0 | 0.00 | 0.00 | 0.00 | 45 | 1012.6 |
| 20260906082514 | 21 | 341 | 0.0 | 0.0 | 0.00 | 0.00 | 0.00 | 44 | 1012.7 |
| 20260906082019 | 21 | 341 | 0.0 | 0.0 | 0.00 | 0.00 | 0.00 | 45 | 1012.7 |
| 20260906081536 | 21 | 341 | 0.0 | 0.0 | 0.00 | 0.00 | 0.00 | 45 | 1012.8 |
| 20260906081018 | 21 | 341 | 0.0 | 0.0 | 0.00 | 0.00 | 0.00 | 45 | 1012.7 |
| 20260906080519 | 21 | 341 | 0.0 | 0.0 | 0.00 | 0.00 | 0.00 | 45 | 1012.8 |
| 20260906080035 | 21 | 341 | 0.0 | 0.0 | 0.00 | 0.00 | 0.00 | 46 | 1012.8 |
| 20260906075517 | 22 | 341 | 0.0 | 0.0 | 0.00 | 0.00 | 0.00 | 45 | 1012.7 |
| 20260906075012 | 21 | 341 | 0.0 | 0.0 | 0.00 | 0.00 | 0.00 | 46 | 1012.7 |
| 20260906074526 | 21 | 341 | 0.0 | 0.0 | 0.00 | 0.00 | 0.00 | 46 | 1012.8 |
| 20260906074014 | 21 | 341 | 0.0 | 0.0 | 0.00 | 0.00 | 0.00 | 46 | 1012.8 |
| 20260906073518 | 22 | 341 | 0.0 | 0.0 | 0.00 | 0.00 | 0.00 | 46 | 1012.8 |
| 20260906073027 | 22 | 341 | 0.0 | 0.0 | 0.00 | 0.00 | 0.00 | 45 | 1012.8 |
| 20260906072517 | 22 | 341 | 0.0 | 0.0 | 0.00 | 0.00 | 0.00 | 44 | 1012.8 |
| 20260906072015 | 22 | 341 | 0.0 | 0.0 | 0.00 | 0.00 | 0.00 | 44 | 1012.7 |
| 20260906071530 | 21 | 341 | 0.0 | 0.0 | 0.00 | 0.00 | 0.00 | 45 | 1012.7 |
| 20260906071018 | 21 | 341 | 0.0 | 0.0 | 0.00 | 0.00 | 0.00 | 45 | 1012.6 |
| 20260906070518 | 21 | 341 | 0.0 | 0.0 | 0.00 | 0.00 | 0.00 | 44 | 1012.6 |
| 20260906070034 | 22 | 341 | 0.0 | 0.0 | 0.00 | 0.00 | 0.00 | 43 | 1012.7 |
| 20260906065517 | 22 | 341 | 0.0 | 0.0 | 0.00 | 0.00 | 0.00 | 42 | 1012.6 |
| 20260906065016 | 22 | 341 | 0.0 | 0.0 | 0.00 | 0.00 | 0.00 | 42 | 1012.7 |
| 20260906064536 | 22 | 341 | 0.0 | 0.0 | 0.00 | 0.00 | 0.00 | 42 | 1012.7 |
| 20260906064021 | 22 | 341 | 0.0 | 0.0 | 0.00 | 0.00 | 0.00 | 43 | 1012.7 |
| 20260906063514 | 22 | 341 | 0.0 | 0.0 | 0.00 | 0.00 | 0.00 | 43 | 1012.7 |
| 20260906063028 | 21 | 341 | 0.0 | 0.0 | 0.00 | 0.00 | 0.00 | 44 | 1012.8 |
| 20260906062515 | 21 | 341 | 0.0 | 0.0 | 0.00 | 0.00 | 0.00 | 45 | 1012.8 |
| 20260906062016 | 21 | 341 | 0.0 | 0.0 | 0.00 | 0.00 | 0.00 | 45 | 1012.9 |
| 20260906061530 | 21 | 341 | 0.0 | 0.0 | 0.00 | 0.00 | 0.00 | 44 | 1012.9 |
| 20260906061019 | 21 | 341 | 0.0 | 0.0 | 0.00 | 0.00 | 0.00 | 44 | 1012.9 |
| 20260906060519 | 21 | 341 | 0.0 | 0.0 | 0.00 | 0.00 | 0.00 | 45 | 1012.9 |
| 20260906060031 | 22 | 341 | 0.0 | 0.0 | 0.00 | 0.00 | 0.00 | 45 | 1012.9 |
| 20260906055517 | 21 | 341 | 0.0 | 0.0 | 0.00 | 0.00 | 0.00 | 45 | 1012.9 |
| 20260906055019 | 21 | 338 | 0.0 | 0.0 | 0.00 | 0.00 | 0.00 | 45 | 1012.9 |
| 20260906054534 | 21 | 338 | 0.0 | 0.0 | 0.00 | 0.00 | 0.00 | 45 | 1013.0 |
| 20260906054019 | 22 | 338 | 0.0 | 0.0 | 0.00 | 0.00 | 0.00 | 45 | 1013.1 |
| 20260906053519 | 21 | 336 | 0.0 | 0.0 | 0.00 | 0.00 | 0.00 | 46 | 1013.2 |
| 20260906053037 | 21 | 336 | 0.0 | 0.0 | 0.00 | 0.00 | 0.00 | 46 | 1013.2 |
| 20260906052515 | 22 | 336 | 0.0 | 0.0 | 0.00 | 0.00 | 0.00 | 45 | 1013.2 |
| 20260906052016 | 22 | 336 | 0.0 | 0.0 | 0.00 | 0.00 | 0.00 | 44 | 1013.2 |
| 20260906051534 | 22 | 336 | 0.0 | 0.0 | 0.00 | 0.00 | 0.00 | 44 | 1013.2 |
| 20260906051016 | 22 | 336 | 0.0 | 0.0 | 0.00 | 0.00 | 0.00 | 43 | 1013.2 |
| 20260906050516 | 22 | 336 | 0.0 | 0.0 | 0.00 | 0.00 | 0.00 | 44 | 1013.2 |
| 20260906050052 | 22 | 331 | 0.0 | 0.0 | 0.00 | 0.00 | 0.00 | 45 | 1013.2 |
| 20260906045517 | 22 | 331 | 0.0 | 0.0 | 0.00 | 0.00 | 0.00 | 45 | 1013.1 |
| 20260906045021 | 22 | 331 | 0.0 | 1.6 | 0.00 | 0.00 | 0.00 | 45 | 1013.2 |
| 20260906044533 | 22 | 331 | 0.0 | 1.6 | 0.00 | 0.00 | 0.00 | 45 | 1013.2 |
| 20260906044018 | 22 | 314 | 0.0 | 0.0 | 0.00 | 0.00 | 0.00 | 47 | 1013.2 |
| 20260906043515 | 22 | 309 | 0.0 | 0.0 | 0.00 | 0.00 | 0.00 | 47 | 1013.2 |
| 20260906043032 | 22 | 309 | 0.0 | 0.0 | 0.00 | 0.00 | 0.00 | 50 | 1013.2 |
| 20260906042518 | 22 | 309 | 0.0 | 0.0 | 0.00 | 0.00 | 0.00 | 50 | 1013.2 |
| 20260906042019 | 22 | 300 | 0.0 | 0.0 | 0.00 | 0.00 | 0.00 | 53 | 1013.2 |
| 20260906041533 | 22 | 302 | 0.0 | 0.0 | 0.00 | 0.00 | 0.00 | 58 | 1013.1 |
| 20260906041017 | 22 | 221 | 0.0 | 0.0 | 0.00 | 0.00 | 0.00 | 60 | 1013.1 |
| 20260906040516 | 23 | 215 | 0.0 | 0.0 | 0.00 | 0.00 | 0.00 | 69 | 1013.1 |
| 20260906040036 | 22 | 215 | 0.0 | 0.0 | 0.00 | 0.00 | 0.00 | 70 | 1013.1 |
| 20260906035516 | 22 | 215 | 0.0 | 0.0 | 0.00 | 0.00 | 0.00 | 71 | 1013.1 |
| 20260906035018 | 22 | 200 | 0.0 | 0.0 | 0.00 | 0.00 | 0.00 | 71 | 1013.1 |
| 20260906034540 | 22 | 180 | 0.0 | 3.2 | 0.00 | 0.00 | 0.00 | 71 | 1013.0 |
| 20260906034017 | 22 | 179 | 0.0 | 3.2 | 0.00 | 0.00 | 0.00 | 71 | 1013.0 |
| 20260906033514 | 22 | 169 | 0.0 | 1.6 | 0.00 | 0.00 | 0.00 | 71 | 1012.9 |
| 20260906033032 | 22 | 146 | 0.0 | 0.0 | 0.00 | 0.00 | 0.00 | 71 | 1012.9 |
| 20260906032519 | 23 | 144 | 0.0 | 0.0 | 0.00 | 0.00 | 0.00 | 70 | 1012.8 |
| 20260906032019 | 23 | 144 | 0.0 | 0.0 | 0.00 | 0.00 | 0.00 | 70 | 1012.8 |
| 20260906031540 | 23 | 114 | 0.0 | 0.0 | 0.00 | 0.00 | 0.00 | 70 | 1012.7 |
| 20260906031019 | 23 | 111 | 0.0 | 0.0 | 0.00 | 0.00 | 0.00 | 70 | 1012.7 |
| 20260906030521 | 23 | 111 | 0.0 | 0.0 | 0.00 | 0.00 | 0.00 | 69 | 1012.7 |
| 20260906030032 | 23 | 111 | 0.0 | 0.0 | 0.00 | 0.00 | 0.00 | 69 | 1012.6 |
| 20260906025515 | 23 | 129 | 0.0 | 0.0 | 0.00 | 0.00 | 0.00 | 71 | 1012.5 |
| 20260906025018 | 22 | 129 | 0.0 | 3.2 | 0.00 | 0.00 | 0.00 | 70 | 1012.6 |
| 20260906024513 | 22 | 120 | 0.0 | 3.2 | 0.00 | 0.00 | 0.00 | 70 | 1012.7 |
| 20260906024007 | 22 | 85 | 0.0 | 3.2 | 0.00 | 0.00 | 0.00 | 71 | 1012.6 |
| 20260906023507 | 22 | 130 | 0.0 | 3.2 | 0.00 | 0.00 | 0.00 | 70 | 1012.6 |
| 20260906023011 | 22 | 300 | 0.0 | 3.2 | 0.00 | 0.00 | 0.00 | 70 | 1012.6 |
| 20260906022512 | 23 | 259 | 0.0 | 3.2 | 0.00 | 0.00 | 0.00 | 70 | 1012.7 |
| 20260906022015 | 23 | 139 | 0.0 | 4.8 | 0.00 | 0.00 | 0.00 | 69 | 1012.7 |
| 20260906021525 | 23 | 32 | 0.0 | 4.8 | 0.00 | 0.00 | 0.00 | 68 | 1012.7 |
| 20260906021015 | 23 | 341 | 0.0 | 3.2 | 0.00 | 0.00 | 0.00 | 68 | 1012.7 |
| 20260906020516 | 23 | 344 | 0.0 | 3.2 | 0.00 | 0.00 | 0.00 | 68 | 1012.7 |
| 20260906020030 | 23 | 110 | 0.0 | 3.2 | 0.00 | 0.00 | 0.00 | 68 | 1012.8 |
| 20260906015514 | 23 | 275 | 0.0 | 3.2 | 0.00 | 0.00 | 0.00 | 68 | 1012.7 |
| 20260906015014 | 23 | 13 | 0.0 | 3.2 | 0.00 | 0.00 | 0.00 | 68 | 1012.8 |
| 20260906014534 | 23 | 148 | 0.0 | 4.8 | 0.00 | 0.00 | 0.00 | 66 | 1012.8 |
| 20260906014020 | 24 | 327 | 0.0 | 6.4 | 0.00 | 0.00 | 0.00 | 65 | 1012.8 |
| 20260906013519 | 24 | 25 | 0.0 | 6.4 | 0.00 | 0.00 | 0.00 | 64 | 1012.8 |
| 20260906013012 | 24 | 317 | 0.0 | 4.8 | 0.00 | 0.00 | 0.00 | 63 | 1012.9 |
| 20260906012510 | 24 | 333 | 0.0 | 4.8 | 0.00 | 0.00 | 0.00 | 66 | 1012.9 |
| 20260906012013 | 24 | 341 | 0.0 | 8.0 | 0.00 | 0.00 | 0.00 | 66 | 1012.9 |
| 20260906011520 | 23 | 90 | 1.6 | 6.4 | 0.00 | 0.00 | 0.00 | 67 | 1012.9 |
| 20260906011013 | 23 | 350 | 1.6 | 4.8 | 0.00 | 0.00 | 0.00 | 69 | 1012.9 |
| 20260906010519 | 23 | 134 | 0.0 | 4.8 | 0.00 | 0.00 | 0.00 | 69 | 1012.8 |
| 20260906010026 | 24 | 330 | 0.0 | 4.8 | 0.00 | 0.00 | 0.00 | 69 | 1012.8 |
| 20260906005515 | 24 | 261 | 0.0 | 6.4 | 0.00 | 0.00 | 0.00 | 69 | 1012.8 |
| 20260906005016 | 25 | 313 | 1.6 | 6.4 | 0.00 | 0.00 | 0.00 | 66 | 1012.8 |
| 20260906004533 | 25 | 347 | 0.0 | 4.8 | 0.00 | 0.00 | 0.00 | 63 | 1012.8 |
| 20260906004016 | 25 | 208 | 1.6 | 4.8 | 0.00 | 0.00 | 0.00 | 59 | 1012.7 |
| 20260906003524 | 25 | 328 | 1.6 | 4.8 | 0.00 | 0.00 | 0.00 | 56 | 1012.7 |
| 20260906003034 | 25 | 349 | 1.6 | 4.8 | 0.00 | 0.00 | 0.00 | 56 | 1012.7 |
| 20260906002523 | 25 | 5 | 1.6 | 4.8 | 0.00 | 0.00 | 0.00 | 57 | 1012.6 |
| 20260906002010 | 25 | 318 | 1.6 | 6.4 | 0.00 | 0.00 | 0.00 | 59 | 1012.6 |
| 20260906001517 | 25 | 360 | 0.0 | 6.4 | 0.00 | 0.00 | 0.00 | 58 | 1012.7 |
| 20260906001011 | 25 | 348 | 1.6 | 6.4 | 0.00 | 0.00 | 0.00 | 56 | 1012.7 |
| 20260906000513 | 25 | 5 | 1.6 | 4.8 | 0.00 | 0.00 | 0.00 | 56 | 1012.9 |
| 20260906000030 | 25 | 300 | 1.6 | 4.8 | 0.00 | 0.00 | 0.00 | 55 | 1012.8 |
| 20260905235515 | 25 | 5 | 0.0 | 4.8 | 0.00 | 0.00 | 0.00 | 59 | 1012.7 |
| 20260905235015 | 25 | 346 | 1.6 | 6.4 | 0.00 | 0.00 | 0.00 | 60 | 1012.8 |
| 20260905234527 | 25 | 82 | 1.6 | 6.4 | 0.00 | 0.00 | 0.00 | 61 | 1012.9 |
| 20260905234014 | 25 | 83 | 1.6 | 8.0 | 0.00 | 0.00 | 0.00 | 60 | 1012.8 |
| 20260905233508 | 25 | 240 | 3.2 | 8.0 | 0.00 | 0.00 | 0.00 | 62 | 1012.8 |
| 20260905233012 | 24 | 255 | 1.6 | 4.8 | 0.00 | 0.00 | 0.00 | 63 | 1012.8 |
| 20260905232510 | 24 | 123 | 1.6 | 6.4 | 0.00 | 0.00 | 0.00 | 63 | 1012.8 |
| 20260905232008 | 24 | 161 | 1.6 | 9.7 | 0.00 | 0.00 | 0.00 | 64 | 1012.8 |
| 20260905231514 | 25 | 15 | 1.6 | 9.7 | 0.00 | 0.00 | 0.00 | 62 | 1012.8 |
| 20260905231013 | 25 | 13 | 0.0 | 8.0 | 0.00 | 0.00 | 0.00 | 65 | 1012.9 |
| 20260905230509 | 26 | 321 | 1.6 | 8.0 | 0.00 | 0.00 | 0.00 | 64 | 1012.9 |
| 20260905230018 | 25 | 349 | 1.6 | 8.0 | 0.00 | 0.00 | 0.00 | 65 | 1013.0 |
| 20260905225513 | 25 | 321 | 1.6 | 4.8 | 0.00 | 0.00 | 0.00 | 67 | 1012.9 |
| 20260905225014 | 25 | 321 | 1.6 | 4.8 | 0.00 | 0.00 | 0.00 | 65 | 1013.0 |
| 20260905224526 | 25 | 19 | 1.6 | 4.8 | 0.00 | 0.00 | 0.00 | 65 | 1013.0 |
| 20260905224015 | 25 | 66 | 1.6 | 4.8 | 0.00 | 0.00 | 0.00 | 64 | 1013.1 |
| 20260905223519 | 26 | 319 | 0.0 | 4.8 | 0.00 | 0.00 | 0.00 | 62 | 1013.0 |
| 20260905223030 | 26 | 130 | 0.0 | 4.8 | 0.00 | 0.00 | 0.00 | 64 | 1013.1 |
| 20260905222506 | 26 | 336 | 0.0 | 4.8 | 0.00 | 0.00 | 0.00 | 63 | 1013.2 |
| 20260905222009 | 26 | 344 | 0.0 | 6.4 | 0.00 | 0.00 | 0.00 | 65 | 1013.2 |
| 20260905221509 | 25 | 67 | 1.6 | 6.4 | 0.00 | 0.00 | 0.00 | 63 | 1013.3 |
| 20260905221008 | 26 | 296 | 1.6 | 4.8 | 0.00 | 0.00 | 0.00 | 65 | 1013.3 |
| 20260905220512 | 25 | 338 | 0.0 | 4.8 | 0.00 | 0.00 | 0.00 | 63 | 1013.4 |
| 20260905220017 | 26 | 338 | 0.0 | 4.8 | 0.00 | 0.00 | 0.00 | 63 | 1013.3 |
| 20260905215511 | 25 | 107 | 1.6 | 4.8 | 0.00 | 0.00 | 0.00 | 64 | 1013.4 |
| 20260905215012 | 26 | 55 | 0.0 | 4.8 | 0.00 | 0.00 | 0.00 | 61 | 1013.3 |
| 20260905214524 | 26 | 342 | 1.6 | 4.8 | 0.00 | 0.00 | 0.00 | 61 | 1013.4 |
| 20260905214016 | 26 | 328 | 1.6 | 4.8 | 0.00 | 0.00 | 0.00 | 60 | 1013.4 |
| 20260905213516 | 27 | 51 | 1.6 | 4.8 | 0.00 | 0.00 | 0.00 | 59 | 1013.4 |
| 20260905213030 | 26 | 311 | 1.6 | 4.8 | 0.00 | 0.00 | 0.00 | 60 | 1013.5 |
| 20260905212516 | 26 | 22 | 1.6 | 11.3 | 0.00 | 0.00 | 0.00 | 59 | 1013.5 |
| 20260905212017 | 26 | 311 | 1.6 | 11.3 | 0.00 | 0.00 | 0.00 | 60 | 1013.6 |
| 20260905211530 | 26 | 53 | 0.0 | 4.8 | 0.00 | 0.00 | 0.00 | 59 | 1013.8 |
| 20260905211008 | 27 | 342 | 0.0 | 3.2 | 0.00 | 0.00 | 0.00 | 56 | 1013.9 |
| 20260905210511 | 26 | 306 | 0.0 | 3.2 | 0.00 | 0.00 | 0.00 | 60 | 1013.9 |
| 20260905210014 | 26 | 163 | 0.0 | 4.8 | 0.00 | 0.00 | 0.00 | 60 | 1013.9 |
| 20260905205511 | 26 | 341 | 0.0 | 4.8 | 0.00 | 0.00 | 0.00 | 62 | 1013.9 |
| 20260905205012 | 26 | 198 | 1.6 | 3.2 | 0.00 | 0.00 | 0.00 | 62 | 1014.1 |
| 20260905204520 | 25 | 343 | 0.0 | 4.8 | 0.00 | 0.00 | 0.00 | 63 | 1014.1 |
| 20260905204011 | 25 | 332 | 1.6 | 4.8 | 0.00 | 0.00 | 0.00 | 64 | 1014.2 |
| 20260905203513 | 25 | 352 | 1.6 | 4.8 | 0.00 | 0.00 | 0.00 | 65 | 1014.3 |
| 20260905203024 | 25 | 301 | 0.0 | 4.8 | 0.00 | 0.00 | 0.00 | 66 | 1014.2 |
| 20260905202514 | 26 | 84 | 0.0 | 6.4 | 0.00 | 0.00 | 0.00 | 61 | 1014.3 |
| 20260905202017 | 25 | 352 | 1.6 | 6.4 | 0.00 | 0.00 | 0.00 | 64 | 1014.2 |
| 20260905201536 | 25 | 334 | 1.6 | 4.8 | 0.00 | 0.00 | 0.00 | 65 | 1014.3 |
| 20260905201018 | 25 | 67 | 0.0 | 4.8 | 0.00 | 0.00 | 0.00 | 64 | 1014.3 |
| 20260905200521 | 24 | 334 | 1.6 | 6.4 | 0.00 | 0.00 | 0.00 | 66 | 1014.3 |
| 20260905200041 | 25 | 16 | 1.6 | 6.4 | 0.00 | 0.00 | 0.00 | 63 | 1014.3 |
| 20260905195517 | 25 | 309 | 1.6 | 4.8 | 0.00 | 0.00 | 0.00 | 65 | 1014.4 |
| 20260905195019 | 25 | 9 | 0.0 | 6.4 | 0.00 | 0.00 | 0.00 | 65 | 1014.4 |
| 20260905194532 | 24 | 351 | 1.6 | 6.4 | 0.00 | 0.00 | 0.00 | 65 | 1014.5 |
| 20260905194016 | 25 | 73 | 1.6 | 4.8 | 0.00 | 0.00 | 0.00 | 64 | 1014.5 |
| 20260905193519 | 24 | 284 | 1.6 | 3.2 | 0.00 | 0.00 | 0.00 | 65 | 1014.4 |
| 20260905193027 | 24 | 136 | 0.0 | 4.8 | 0.00 | 0.00 | 0.00 | 66 | 1014.4 |
| 20260905192514 | 25 | 302 | 1.6 | 4.8 | 0.00 | 0.00 | 0.00 | 64 | 1014.4 |
| 20260905192016 | 25 | 5 | 0.0 | 3.2 | 0.00 | 0.00 | 0.00 | 66 | 1014.5 |
| 20260905191528 | 24 | 302 | 0.0 | 4.8 | 0.00 | 0.00 | 0.00 | 65 | 1014.6 |
| 20260905191014 | 25 | 325 | 1.6 | 6.4 | 0.00 | 0.00 | 0.00 | 65 | 1014.6 |
| 20260905190517 | 25 | 331 | 1.6 | 6.4 | 0.00 | 0.00 | 0.00 | 67 | 1014.7 |
| 20260905190031 | 23 | 322 | 1.6 | 6.4 | 0.00 | 0.00 | 0.00 | 69 | 1014.8 |
| 20260905185518 | 25 | 140 | 0.0 | 4.8 | 0.00 | 0.00 | 0.00 | 66 | 1014.9 |
| 20260905185019 | 24 | 352 | 0.0 | 4.8 | 0.00 | 0.00 | 0.00 | 67 | 1015.0 |
| 20260905184538 | 24 | 77 | 0.0 | 4.8 | 0.00 | 0.00 | 0.00 | 67 | 1015.1 |
| 20260905184017 | 24 | 9 | 0.0 | 4.8 | 0.00 | 0.00 | 0.00 | 67 | 1015.1 |
| 20260905183522 | 24 | 317 | 0.0 | 4.8 | 0.00 | 0.00 | 0.00 | 66 | 1015.1 |
| 20260905183032 | 25 | 340 | 0.0 | 3.2 | 0.00 | 0.00 | 0.00 | 66 | 1015.1 |
| 20260905182518 | 24 | 324 | 0.0 | 3.2 | 0.00 | 0.00 | 0.00 | 68 | 1015.2 |
| 20260905182014 | 24 | 331 | 0.0 | 3.2 | 0.00 | 0.00 | 0.00 | 68 | 1015.3 |
| 20260905181527 | 23 | 20 | 0.0 | 6.4 | 0.00 | 0.00 | 0.00 | 70 | 1015.3 |
| 20260905181015 | 23 | 276 | 1.6 | 6.4 | 0.00 | 0.00 | 0.00 | 72 | 1015.3 |
| 20260905180514 | 23 | 22 | 0.0 | 6.4 | 0.00 | 0.00 | 0.00 | 71 | 1015.4 |